Theta_e
327 326 325 324 324 323 323 322 320 319 319 322 327 330 330 330 332 334 334 334 334 335 335 334 333 335 333 335 333 334 333 333 334 337 339 339 339 338 336 335 335 336 333
322 322 322 323 319 317 317 317 317 317 317 322 324 325 326 327 330 330 329 329 330 330 329 332 332 332 335 337 336 335 333 333 335 339 338 340 337 336 335 336 337 334 334
317 317 319 320 322 322 319 316 316 316 316 319 321 324 325 326 327 328 328 329 329 328 328 329 331 333 334 336 338 337 335 335 335 335 337 337 335 334 334 334 335 333 331
316 318 318 318 318 320 319 316 316 316 319 319 319 321 323 325 324 325 326 327 328 326 327 329 327 329 332 334 337 339 337 337 333 338 336 337 334 333 333 336 335 331 332
315 316 318 319 318 317 318 316 315 316 320 322 322 323 324 324 324 326 327 328 327 327 327 327 325 324 321 324 332 336 340 340 337 337 337 336 333 332 333 336 336 335 332
311 314 314 316 317 318 317 318 319 321 322 323 324 324 324 320 318 313 313 319 320 322 325 326 325 320 323 323 323 328 332 339 342 341 340 338 336 334 334 335 336 333 335
309 309 310 314 314 316 317 318 320 322 323 323 322 320 319 318 311 311 311 314 317 318 319 322 324 322 324 327 328 331 335 334 336 342 342 337 336 335 334 335 334 334 333
308 309 309 310 312 315 316 317 320 321 321 319 318 317 317 315 311 311 310 311 314 315 317 320 324 326 326 324 329 334 337 339 337 338 337 337 335 336 334 335 334 333 331
308 308 309 309 310 311 315 317 318 318 318 317 316 316 316 315 310 309 309 313 313 314 316 318 324 326 327 321 326 333 336 337 336 333 335 336 336 334 333 332 332 332 332
307 307 308 308 309 310 312 313 315 316 316 315 315 314 314 314 313 309 309 311 312 314 316 320 323 324 323 319 323 330 336 337 331 332 334 334 333 332 331 333 333 332 332
307 306 307 307 308 309 310 312 313 313 312 314 313 314 314 313 313 309 310 311 313 314 315 319 320 324 320 317 324 332 336 338 333 333 332 332 332 329 329 331 333 332 331
305 306 306 307 307 307 308 310 311 312 312 312 312 313 313 314 312 312 310 310 310 315 316 319 323 325 322 321 327 333 333 334 332 332 330 329 328 328 331 331 332 332 331
304 305 306 306 306 306 307 308 309 310 311 312 312 312 312 312 313 312 311 310 309 311 315 318 321 323 321 325 327 333 333 331 331 332 330 329 329 331 331 332 332 332 331
303 304 305 305 306 306 306 307 309 310 311 311 311 312 312 312 312 312 313 313 311 309 311 314 320 319 322 324 330 331 330 331 332 333 331 330 331 331 331 331 331 331 331
302 303 304 305 305 306 306 308 309 310 310 310 311 311 312 312 312 312 311 313 313 316 318 320 320 320 322 323 325 329 328 329 330 330 330 330 330 331 330 331 331 331 331
301 303 303 303 304 304 306 308 309 310 310 310 311 311 311 311 311 311 311 311 311 315 320 322 321 323 324 323 324 326 326 328 330 330 331 330 330 330 329 329 329 330 330
301 302 302 303 304 304 306 307 308 307 308 308 308 309 310 310 311 310 311 313 316 318 319 322 322 323 325 326 325 326 327 328 329 331 331 331 330 329 328 328 329 329 328
300 301 302 303 304 306 308 309 309 311 310 309 309 309 309 310 310 311 313 314 313 314 319 319 322 324 326 328 328 328 329 327 329 330 331 331 330 329 328 328 328 328 328
301 303 304 304 304 305 307 308 308 309 310 311 311 310 310 310 310 311 311 309 318 320 319 318 321 326 326 328 329 328 327 329 330 330 330 330 329 326 327 328 327 327 326
303 303 304 307 307 308 309 310 310 311 312 312 313 313 312 308 306 306 307 309 315 318 319 319 321 325 325 326 327 327 326 327 329 329 330 328 328 327 326 326 325 325 325
305 305 306 308 308 309 310 311 312 312 313 312 313 313 313 311 313 313 315 314 316 317 318 321 324 324 325 326 328 328 327 327 327 328 327 328 328 326 327 326 325 326 326
307 307 309 309 310 310 310 311 311 311 310 312 313 313 313 312 315 315 315 315 315 316 320 323 324 325 327 329 330 330 331 330 330 329 329 329 328 326 324 325 326 326 325
309 309 309 309 310 311 312 312 311 310 314 315 315 316 312 310 312 315 316 316 319 322 323 324 325 327 329 329 330 330 330 330 329 329 328 326 325 326 326 325 326 324 324
309 310 311 311 312 313 314 313 313 313 316 316 317 318 318 317 317 320 320 321 323 323 324 325 326 328 328 328 328 328 328 328 328 327 325 326 326 325 325 324 321 314 308
314 311 310 311 311 312 314 316 316 317 317 318 319 318 316 317 317 318 320 322 323 323 324 326 327 327 327 326 326 326 325 325 325 325 325 324 323 323 319 313 309 307 307
310 311 312 313 313 315 315 315 317 317 318 318 316 314 317 316 314 316 319 320 320 322 323 324 325 326 326 326 325 324 324 325 325 325 324 320 317 316 314 311 308 306 303
Wind_Speed
23 22 21 22 21 21 20 19 18 17 15 12 11 10 10 11 11 12 11 12 11 9 7 7 8 7 9 11 10 16 18 15 10 22 12 9 11 9 8 8 6 5 4
15 16 18 21 24 23 21 20 19 17 15 12 12 11 11 10 10 10 10 9 7 5 3 4 6 6 10 11 11 12 18 17 16 17 13 12 12 8 9 7 6 6 4
9 11 13 15 18 22 23 22 20 18 17 15 13 13 12 10 9 8 6 4 3 2 3 4 6 7 10 11 13 11 18 21 13 19 16 12 11 9 7 9 8 6 6
13 15 14 16 18 17 20 21 20 18 15 17 18 15 13 12 10 8 7 5 5 4 5 6 8 10 11 14 13 14 16 21 17 21 19 15 12 9 13 11 7 8 6
5 8 14 16 18 19 17 21 22 19 18 17 18 16 13 11 9 8 6 5 5 7 8 9 11 13 18 17 16 16 15 20 13 17 18 12 8 7 11 9 10 8 5
10 6 5 9 15 17 20 19 21 21 19 18 18 18 17 13 13 9 5 3 5 8 12 14 15 18 18 20 19 20 22 21 20 21 19 14 12 13 11 11 11 7 4
13 13 10 6 9 14 19 20 21 22 21 20 18 16 14 12 12 7 5 6 8 11 14 18 18 17 20 17 19 22 21 22 27 26 20 16 12 18 15 13 12 8 4
22 19 15 13 10 9 15 19 21 21 23 20 16 14 13 12 12 11 11 10 9 13 16 19 21 21 20 20 20 20 20 19 22 24 22 16 15 10 18 12 13 9 7
27 25 21 19 17 14 15 16 18 19 19 19 18 17 15 14 15 14 13 9 12 15 18 20 21 21 22 22 23 21 20 18 20 14 19 14 10 11 18 14 12 11 7
31 29 27 25 24 20 20 19 17 17 17 17 17 17 17 16 16 16 14 11 14 16 18 21 24 26 26 24 26 19 20 17 15 16 16 13 12 10 14 12 12 10 6
35 33 31 29 28 27 22 22 21 21 21 20 21 20 19 18 17 17 15 13 14 17 19 20 22 23 25 25 25 24 20 11 14 13 14 14 11 15 15 10 10 9 9
37 36 35 31 30 27 27 26 25 23 22 23 22 23 21 17 18 17 18 17 18 18 20 21 21 23 24 26 23 20 15 11 14 16 15 14 14 13 11 10 11 8 7
36 36 36 34 33 31 29 27 27 25 25 24 24 24 23 19 16 17 20 21 22 27 22 25 27 28 23 26 21 16 13 15 17 16 16 16 17 13 13 13 11 10 8
33 31 29 30 29 31 30 29 27 27 26 27 25 23 21 19 17 16 16 17 21 28 30 29 29 26 23 18 17 16 15 15 16 15 17 18 14 14 15 13 13 13 12
29 28 28 26 27 24 28 27 29 30 30 27 26 23 21 20 20 19 21 19 18 20 18 14 13 15 15 16 16 18 17 16 13 13 18 15 15 16 12 13 13 13 12
22 22 24 26 26 26 25 24 20 23 27 30 25 23 22 23 18 21 24 25 26 24 16 14 14 16 16 16 19 21 21 18 15 15 16 17 16 16 15 14 12 13 11
19 17 16 16 16 19 22 23 20 19 24 26 28 29 27 22 22 27 23 20 20 22 16 17 16 17 17 19 21 21 18 16 17 15 17 17 17 16 18 15 14 11 11
15 18 19 22 24 19 19 18 16 14 15 19 27 29 27 25 26 23 19 18 14 16 17 18 18 19 19 21 21 20 18 19 19 18 17 17 17 16 16 16 15 14 11
14 8 19 16 18 16 15 16 16 16 19 20 20 18 26 26 28 28 27 20 21 22 16 19 21 20 19 19 20 18 19 22 22 20 19 18 19 21 15 14 13 12 14
16 17 15 15 18 18 17 15 15 16 14 13 13 16 16 20 17 20 22 21 21 22 19 21 20 20 20 17 18 18 20 23 21 20 20 21 22 21 18 18 13 15 12
15 14 10 9 12 13 14 13 12 13 13 12 13 16 17 17 20 23 24 23 24 25 22 20 19 21 20 19 20 20 20 20 21 22 23 22 20 20 17 16 15 14 14
12 14 10 12 13 14 13 13 13 11 12 14 12 12 16 21 15 17 19 22 22 22 19 21 21 21 22 22 22 21 22 22 22 26 23 21 19 19 21 17 13 13 15
10 11 12 12 11 10 10 11 12 13 14 12 11 10 10 14 17 17 20 21 19 20 24 24 22 21 20 20 21 23 23 23 24 25 22 21 22 20 18 17 15 15 15
8 9 11 11 12 12 12 14 13 13 11 10 10 8 7 11 16 17 18 20 23 24 23 24 22 21 21 21 20 21 21 21 21 22 27 23 19 19 17 16 16 18 21
5 16 17 13 13 14 13 10 11 11 13 12 9 7 10 11 17 20 23 24 24 21 17 17 20 21 21 24 21 21 23 24 25 26 26 25 23 19 18 19 22 23 21
22 19 15 13 14 11 12 11 8 12 12 10 10 10 12 11 15 20 21 23 20 17 17 16 19 26 27 26 26 25 24 24 25 26 26 24 23 22 23 24 23 22 21
Wind_Direction
181 182 180 177 175 173 171 175 181 188 195 196 191 188 190 191 185 181 181 183 192 201 212 227 246 257 265 269 272 281 251 224 246 276 283 288 284 255 241 226 220 203 227
182 187 185 182 175 176 178 181 183 185 192 191 191 191 188 186 183 180 176 174 179 194 223 248 279 280 271 268 263 259 257 242 234 271 291 281 278 244 232 234 228 217 211
187 198 198 193 190 186 182 183 185 187 195 194 190 189 192 191 189 190 189 189 202 242 292 291 291 285 280 275 259 260 255 243 246 235 246 261 269 252 243 231 223 221 239
208 215 214 209 204 201 189 188 191 195 203 206 203 199 197 195 200 202 209 223 235 265 283 288 293 288 287 280 276 262 259 242 253 228 243 245 242 236 225 228 219 222 220
269 218 218 220 220 216 209 198 199 203 205 206 202 196 193 192 197 195 203 221 246 269 268 270 281 282 289 289 279 273 259 246 249 240 242 244 204 234 223 222 224 214 219
341 341 274 239 225 218 216 211 196 194 190 188 193 186 180 183 186 181 191 233 273 286 288 285 287 296 296 292 296 288 264 255 251 242 241 228 225 230 214 207 202 194 206
300 300 299 285 234 223 217 210 202 189 183 188 191 188 188 188 192 204 248 281 290 292 293 288 286 286 287 286 289 293 283 267 257 244 243 227 216 218 202 196 200 192 198
278 273 276 273 255 222 207 200 196 193 183 186 192 194 200 212 223 241 262 274 280 285 282 278 275 276 279 284 289 285 281 276 283 247 234 240 225 226 214 198 192 162 149
254 254 249 245 241 227 224 203 197 192 191 190 197 204 216 231 241 254 268 273 289 284 278 271 267 268 274 290 292 283 283 273 278 242 217 214 230 212 197 173 170 179 167
251 247 245 242 240 229 225 223 210 206 209 207 217 225 229 235 247 257 265 276 278 280 277 272 271 265 268 286 287 281 281 261 226 197 197 189 192 184 202 193 181 195 171
250 244 239 237 237 235 229 221 219 214 223 225 229 235 236 233 241 250 243 254 266 272 270 263 264 263 272 286 288 288 263 244 187 174 169 173 186 200 192 186 193 195 185
251 240 239 233 231 231 229 227 225 221 220 227 232 237 240 234 233 238 245 257 264 260 265 263 262 267 274 281 283 282 241 222 183 180 169 165 178 204 184 183 182 164 160
242 237 236 235 228 226 230 229 229 224 223 225 231 234 233 235 236 243 249 259 263 262 261 257 260 263 271 275 276 257 221 194 177 176 175 163 180 198 172 170 155 151 148
237 233 226 222 221 223 223 223 222 221 220 227 230 229 230 233 242 250 253 259 264 258 262 259 262 267 265 269 265 219 203 195 192 180 161 154 162 169 174 165 161 171 172
227 225 221 210 210 215 222 222 219 220 219 223 222 220 224 232 237 238 250 255 250 247 241 245 254 254 247 242 228 211 198 202 185 172 155 154 167 174 165 167 170 177 182
216 212 216 221 213 209 211 216 210 218 211 214 212 213 231 238 239 244 247 253 250 249 233 237 242 243 239 218 206 200 200 194 190 170 168 170 173 175 169 170 172 184 180
201 200 198 201 200 204 208 213 216 212 212 215 234 226 222 237 235 236 240 250 251 242 220 236 244 243 234 217 202 195 190 188 178 174 176 175 180 177 171 170 174 179 175
178 188 191 199 201 194 178 181 188 188 195 210 219 221 228 234 234 240 235 250 241 227 232 233 243 238 230 214 196 195 184 176 171 173 174 179 175 166 169 175 173 175 165
170 153 166 180 193 193 188 190 193 207 220 222 219 220 228 231 235 239 246 236 236 231 234 237 239 243 225 208 197 186 175 170 170 167 173 170 164 163 175 177 163 150 146
156 177 195 172 171 176 178 183 193 201 203 206 200 209 205 213 219 225 226 225 229 236 239 240 239 226 214 190 179 170 171 168 163 167 167 165 167 172 169 163 158 156 155
148 171 183 167 176 181 181 184 189 185 191 197 209 213 209 203 215 218 219 222 228 232 235 236 214 206 197 182 171 173 166 162 167 166 163 163 167 164 167 165 169 170 156
156 168 165 162 175 187 198 196 199 199 207 214 219 221 221 217 228 224 225 226 227 227 226 214 199 193 184 179 173 168 164 159 158 162 163 162 156 154 151 150 158 156 146
166 176 187 193 198 198 201 193 195 198 214 210 211 214 208 219 221 222 221 220 215 201 199 192 183 178 176 166 159 161 158 159 159 157 153 151 145 149 156 149 149 144 145
205 202 196 202 206 203 199 194 195 206 214 207 209 216 216 213 221 207 190 181 183 189 186 174 169 168 161 157 156 157 157 155 153 157 155 147 149 148 148 143 140 135 132
105 205 208 204 210 211 208 208 199 199 202 205 199 151 146 159 159 160 168 175 178 170 157 158 164 160 159 154 153 153 158 162 160 159 161 157 144 145 140 133 131 127 129
35 42 53 64 66 91 173 179 174 181 176 171 152 136 145 162 157 152 163 161 152 148 146 148 150 157 160 159 156 154 156 157 157 160 157 148 139 135 132 132 131 128 128